Location: Pinawa
(50.1500°N, 95.8830°W)
Time: 14:29:03
(UTC-06:00)

Daily predictions for brighter satellites

Satellite Brightness Start Highest point End
(mag) Time Altitude Azimuth Time Altitude Azimuth Time Altitude Azimuth
Cosmos 1464 Rocket 4.2 18:18:19 10° N 18:24:15 48° ENE 18:30:09 10° SSE
NOAA 12 4.1 18:22:58 10° SSE 18:28:16 75° ENE 18:33:37 10° NNW
Envisat 4.1 18:24:46 10° ESE 18:28:44 24° ENE 18:32:42 10° N
NOSS 3-2 (C) 3.6 18:22:47 10° SSW 18:28:45 71° SE 18:35:29 10° NE
Okean 3 3.5 18:24:45 10° N 18:28:53 57° ENE 18:33:00 10° SSE
EO 1 Del DPAF 4.1 18:26:19 10° NE 18:29:42 29° E 18:33:03 10° SSE
Landsat 4 4.2 18:31:23 10° NNE 18:34:55 39° E 18:38:28 10° S
Cosmos 1674 Rocket 3.5 18:33:45 10° N 18:38:08 85° E 18:42:28 10° S
Cosmos 1437 Rocket 4.1 18:35:24 10° SE 18:38:27 21° E 18:41:33 10° NE
Cosmos 921 Rocket 3.2 18:36:29 10° NNW 18:40:56 53° ENE 18:45:20 10° SE
CENTAUR R/B 2.9 18:41:03 10° S 18:46:50 45° ESE 18:53:24 10° NE
Cosmos 2084 Rocket 3.9 18:43:54 10° WSW 18:48:10 59° NW 18:52:15 10° NE
YAOGAN 6 4.4 18:50:48 13° ENE 18:51:39 14° ENE 18:53:35 10° NNE
USA 267 3.6 18:45:34 10° E 18:51:49 53° N 18:58:08 10° WNW
Cosmos 1908 Rocket 3.8 18:48:10 10° SSE 18:52:29 49° E 18:56:48 10° NNE
YAOGAN 1 4.3 18:50:17 10° SSW 18:54:19 38° W 18:58:24 10° NNW
Cosmos 1943 3.9 18:49:16 10° NNW 18:54:27 35° NE 18:59:19 11° ESE
Cosmos 1733 Rocket 3.4 18:52:43 10° SSW 18:57:01 69° WNW 19:01:21 10° N
Cosmos 2034 Rocket 4.0 18:54:48 10° N 19:01:11 66° ENE 19:07:30 10° SSE
Cosmos 1891 Rocket 4.4 18:55:03 10° N 19:01:20 76° E 19:07:25 10° SSE
Cosmos 1633 2.4 18:58:51 10° S 19:02:23 71° E 19:05:59 10° NNE
FengYun 1-2 T 4.2 18:58:05 10° SSE 19:03:35 82° ENE 19:09:06 10° NNW
Iridium 4 Rocket 3.2 18:58:40 10° N 19:03:36 68° E 19:08:05 10° SSE
Cosmos 1939 Rocket 4.2 19:02:39 16° E 19:04:38 22° ENE 19:07:50 10° NNE
SKYMED 2 4.2 19:01:34 10° N 19:05:51 60° WNW 19:10:07 10° SSW
Cosmos 1331 Rocket 4.3 19:02:59 10° NNW 19:08:09 48° ENE 19:13:17 10° SE
Cosmos 158 Rocket 3.7 19:04:37 10° SSW 19:09:29 76° ESE 19:14:24 10° NNE
COSMOS 2455 4.1 19:05:49 10° SSE 19:09:57 20° ESE 19:11:40 17° E
H-2A R/B 4.1 19:09:17 11° NE 19:09:58 11° NE 19:11:20 10° NNE
Cosmos 2227 Rocket 2.9 19:06:42 10° SW 19:12:15 57° NW 19:17:52 10° NNE
Cosmos 1634 Rocket 4.5 19:06:44 10° N 19:12:24 36° ENE 19:18:01 10° SE
SL-16 R/B 3.3 19:08:58 10° NW 19:14:23 47° WSW 19:19:46 10° S
Cosmos 1975 Rocket 3.0 19:10:02 10° N 19:14:27 64° ENE 19:18:54 10° SSE
BREEZE-M DEB (TANK) 2.8 19:12:57 10° W 19:15:12 33° SSW 19:17:03 16° SE
Resurs 1-3 4.3 19:12:36 16° ESE 19:15:28 32° ENE 19:19:22 10° N
FREGAT/IRIS 2.7 19:15:03 10° S 19:18:00 74° WSW 19:21:00 10° NNW
ATLAS 3B R/B 3.7 19:11:22 10° WSW 19:18:09 45° NNW 19:24:41 10° NE
Spot 2 Rocket 4.2 19:15:08 17° ESE 19:18:21 32° ENE 19:22:51 10° N
ERS-2 2.3 19:16:32 10° S 19:20:13 74° WSW 19:23:56 10° NNW
H-2A R/B 3.6 19:18:09 10° S 19:21:59 53° W 19:25:49 10° NNW
Cosmos 1048 Rocket 3.9 19:17:28 10° SSW 19:22:44 69° ESE 19:27:59 10° NNE
NOSS 3-2 (A) 4.2 19:19:01 10° WSW 19:25:02 53° NW 19:31:50 10° NE
Cosmos 2297 Rocket 3.0 19:20:19 10° SW 19:25:50 53° NW 19:31:25 10° NNE
SJ-6B 2.6 19:22:46 10° SSE 19:26:35 80° ENE 19:30:30 10° NNW
ATLAS CENTAUR R/B 1.7 19:24:38 10° NNW 19:28:36 47° NE 19:30:19 30° E
Resurs 01 Rocket 1.9 19:29:27 21° SE 19:32:05 44° ENE 19:36:19 10° N
Cosmos 1603 3.7 19:27:38 10° NNW 19:33:20 87° WSW 19:38:58 10° SSE
Meteor 1-13 Rocket 4.1 19:30:52 10° N 19:36:26 73° ENE 19:41:56 10° SSE
Okean 1 4.2 19:33:34 10° NNW 19:37:29 51° W 19:41:20 10° S
SL-8 R/B 3.8 19:33:33 10° WSW 19:38:15 59° SSE 19:40:10 34° E
Cosmos 1302 Rocket 4.2 19:33:46 10° NNW 19:38:51 49° ENE 19:41:13 29° ESE
CZ-4C R/B 2.9 19:32:09 10° NW 19:38:58 65° NE 19:43:52 24° ESE
ARGOS Delta rocket 3.8 19:34:48 10° NNE 19:39:38 57° E 19:44:11 10° S
CZ-2D R/B 3.3 19:40:01 10° S 19:43:54 79° WSW 19:47:50 10° NNW
Cosmos 1536 Rocket 3.9 19:40:40 10° N 19:44:55 43° ENE 19:45:41 39° ESE
Cosmos 1782 Rocket 3.7 19:46:02 10° SSW 19:50:28 76° W 19:54:54 10° N
SeaSat 1 2.6 19:47:22 13° SSE 19:51:46 75° WSW 19:56:44 10° NNW
Cosmos 2263 Rocket 3.3 19:48:16 10° SSE 19:51:05 24° SE 19:51:05 24° SE
USA 186 1.7 19:52:49 68° SSE 19:53:10 83° ENE 19:56:31 10° N
Cosmos 1602 3.7 19:49:29 10° SSW 19:53:23 81° W 19:57:18 10° N
Cosmos 1184 Rocket 2.6 19:51:14 10° NNW 19:54:32 90° NE 19:54:47 75° SSE
USA 215 3.6 19:56:01 32° E 19:58:22 44° SE 20:04:32 10° SSW
Tsikada Rocket 4.1 19:56:35 10° S 20:03:01 83° W 20:09:29 10° N
Envisat 3.5 20:02:21 10° S 20:07:22 61° WSW 20:12:25 10° NNW
ARGOS 4.0 20:09:55 33° NE 20:09:55 33° NE 20:14:14 10° N
Meteor 1-4 Rocket 3.7 20:06:07 10° SSW 20:13:56 - N 20:08:06 32° SSW
Meteor 2-4 Rocket 3.9 20:05:52 10° NNW 20:11:42 74° W 20:17:19 10° S
Okean 2 Rocket 3.3 20:09:36 10° SSW 20:13:59 70° WNW 20:18:25 10° N
Cosmos 1437 Rocket 4.1 20:10:35 10° SW 20:14:28 42° WNW 20:18:25 10° N
Thor Agena Rocket 3.6 20:10:34 10° NNE 20:15:41 76° WNW 20:20:43 10° SSW
Cosmos 2227 4.2 20:12:23 10° SSW 20:18:07 86° WNW 20:23:51 10° NNE
Meteor 1-5 Rocket 4.2 20:13:17 10° S 20:19:09 68° E 20:25:06 10° NNE
Cosmos 494 Rocket 3.8 20:14:28 10° SSW 20:19:41 80° ESE 20:24:03 15° NNE
YAOGAN 6 3.2 20:25:13 54° WNW 20:25:13 54° WNW 20:28:21 10° NNW
Cosmos 2082 Rocket 4.3 20:25:24 10° N 20:27:59 13° NNE 20:28:17 13° NNE
Meteor 1-11 Rocket 3.8 20:22:57 10° SSW 20:28:34 78° WNW 20:34:21 10° N
USA 267 3.2 20:32:55 54° ESE 20:34:36 89° SSW 20:41:11 10° WNW
NOAA 11 4.0 20:35:07 69° SSE 20:35:50 87° ENE 20:41:19 10° NNW
CENTAUR R/B 3.2 20:31:11 10° WSW 20:37:25 55° NW 20:43:10 16° NE
Cosmos 2279 Rocket 3.8 20:31:25 10° N 20:37:42 85° E 20:39:18 53° SSE
Cosmos 1943 3.9 20:33:15 10° NW 20:38:43 51° WSW 20:41:12 30° S
Cosmos 1939 Rocket 4.0 20:38:33 39° SW 20:39:20 44° W 20:43:17 10° NNW
COSMOS 2406 4.1 20:38:13 10° NNW 20:42:31 35° NNE 20:42:31 35° NNE
Cosmos 1992 Rocket 4.5 20:42:17 10° NNW 20:46:23 50° N 20:46:23 50° N
H-2A R/B 3.1 20:49:55 37° NNE 20:49:55 37° NNE 20:53:26 10° N
ERS-1 Rocket 4.2 20:55:56 33° N 20:55:56 33° N 20:58:49 10° N
COSMOS 2455 2.7 20:49:05 10° SW 20:54:57 86° SW 20:54:57 86° SW
ATLAS CENTAUR R/B 3.4 21:03:51 10° WNW 21:06:37 26° W 21:06:37 26° W
Resurs 01 Rocket 3.8 21:07:01 19° SW 21:08:46 24° W 21:12:22 10° NW
ATLAS 3B R/B 4.3 21:04:50 10° WNW 21:10:34 26° N 21:13:13 21° NNE
CZ-4C R/B 3.7 21:20:52 10° NW 21:27:31 42° WSW 21:29:06 38° SSW
Cosmos 2263 Rocket 4.2 21:31:21 10° SW 21:32:58 19° SW 21:32:58 19° SW
USA 215 3.7 21:43:23 53° W 21:43:23 53° W 21:48:15 10° WSW
Cosmos 2082 Rocket 4.4 22:08:27 10° NNW 22:10:08 19° N 22:10:08 19° N
H-2A R/B 4.5 22:30:32 19° NW 22:30:32 19° NW 22:32:31 10° NNW
CENTAUR R/B 4.2 22:23:46 10° WNW 22:29:43 30° N 22:30:23 30° N
